| time (UTC) | temp F | wind direction | speed knots | gust knots | rain 1hr in | rain 24hr in | rain mn in | humidity % | barometer mb |
| 20260506172545 | 66 | 233 | 1.7 | 6.1 | 0.00 | 0.00 | 0.00 | 54 | 1018.8 |
| 20260506172046 | 65 | 230 | 1.7 | 5.2 | 0.00 | 0.00 | 0.00 | 53 | 1018.8 |
| 20260506171544 | 65 | 231 | 1.7 | 5.2 | 0.00 | 0.00 | 0.00 | 54 | 1018.8 |
| 20260506171043 | 64 | 229 | 1.7 | 6.1 | 0.00 | 0.00 | 0.00 | 53 | 1018.8 |
| 20260506170543 | 64 | 229 | 1.7 | 6.1 | 0.00 | 0.00 | 0.00 | 53 | 1018.8 |
| 20260506170036 | 64 | 229 | 0.9 | 3.5 | 0.00 | 0.00 | 0.00 | 56 | 1018.8 |
| 20260506165537 | 64 | 229 | 1.7 | 4.3 | 0.00 | 0.00 | 0.00 | 58 | 1018.9 |
| 20260506165037 | 63 | 228 | 1.7 | 4.3 | 0.00 | 0.00 | 0.00 | 59 | 1018.9 |
| 20260506164535 | 63 | 229 | 1.7 | 4.3 | 0.00 | 0.00 | 0.00 | 59 | 1018.9 |
| 20260506164037 | 63 | 229 | 0.9 | 4.3 | 0.00 | 0.00 | 0.00 | 60 | 1018.9 |
| 20260506163535 | 63 | 229 | 0.9 | 3.5 | 0.00 | 0.00 | 0.00 | 61 | 1018.9 |
| 20260506163033 | 63 | 229 | 0.9 | 2.6 | 0.00 | 0.00 | 0.00 | 64 | 1018.9 |
| 20260506162533 | 63 | 230 | 0.9 | 2.6 | 0.00 | 0.00 | 0.00 | 65 | 1018.9 |
| 20260506162031 | 62 | 221 | 0.9 | 2.6 | 0.00 | 0.00 | 0.00 | 67 | 1018.9 |
| 20260506161802 | 62 | 221 | 0.9 | 2.6 | 0.00 | 0.00 | 0.00 | 68 | 1018.9 |
| 20260506161302 | 61 | 221 | 0.9 | 2.6 | 0.00 | 0.00 | 0.00 | 68 | 1018.9 |
| 20260506160800 | 61 | 221 | 1.7 | 4.3 | 0.00 | 0.00 | 0.00 | 68 | 1018.8 |
| 20260506160026 | 61 | 221 | 0.9 | 4.3 | 0.00 | 0.00 | 0.00 | 68 | 1018.9 |
| 20260506155525 | 61 | 221 | 0.0 | 3.5 | 0.00 | 0.00 | 0.00 | 69 | 1018.9 |
| 20260506155257 | 61 | 221 | 0.9 | 2.6 | 0.00 | 0.00 | 0.00 | 70 | 1018.9 |
| 20260506154526 | 60 | 221 | 0.9 | 3.5 | 0.00 | 0.00 | 0.00 | 70 | 1018.9 |
| 20260506154023 | 60 | 221 | 0.9 | 3.5 | 0.00 | 0.00 | 0.00 | 70 | 1018.9 |
| 20260506153521 | 60 | 221 | 0.9 | 3.5 | 0.00 | 0.00 | 0.00 | 70 | 1018.9 |
| 20260506153021 | 60 | 221 | 0.9 | 3.5 | 0.00 | 0.00 | 0.00 | 71 | 1018.9 |
| 20260506152519 | 60 | 221 | 0.9 | 2.6 | 0.00 | 0.00 | 0.00 | 72 | 1018.9 |
| 20260506152020 | 60 | 221 | 0.9 | 3.5 | 0.00 | 0.00 | 0.00 | 73 | 1018.9 |
| 20260506151519 | 60 | 221 | 0.9 | 3.5 | 0.00 | 0.00 | 0.00 | 74 | 1018.9 |
| 20260506151017 | 59 | 221 | 0.9 | 2.6 | 0.00 | 0.00 | 0.00 | 75 | 1019.0 |
| 20260506150515 | 59 | 221 | 0.0 | 3.5 | 0.00 | 0.00 | 0.00 | 77 | 1019.0 |
| 20260506145512 | 58 | 221 | 0.0 | 2.6 | 0.00 | 0.00 | 0.00 | 77 | 1018.9 |
| 20260506145244 | 58 | 221 | 0.9 | 2.6 | 0.00 | 0.00 | 0.00 | 78 | 1018.9 |
| 20260506144513 | 58 | 221 | 0.9 | 2.6 | 0.00 | 0.00 | 0.00 | 79 | 1018.9 |
| 20260506144010 | 57 | 221 | 0.9 | 2.6 | 0.00 | 0.00 | 0.00 | 80 | 1018.9 |
| 20260506143509 | 57 | 221 | 0.0 | 2.6 | 0.00 | 0.00 | 0.00 | 80 | 1018.9 |
| 20260506143006 | 56 | 221 | 0.0 | 1.7 | 0.00 | 0.00 | 0.00 | 81 | 1018.9 |
| 20260506142506 | 56 | 221 | 0.9 | 2.6 | 0.00 | 0.00 | 0.00 | 81 | 1018.9 |
| 20260506142007 | 56 | 221 | 0.0 | 2.6 | 0.00 | 0.00 | 0.00 | 82 | 1018.9 |
| 20260506141507 | 55 | 221 | 0.0 | 0.0 | 0.00 | 0.00 | 0.00 | 82 | 1018.8 |
| 20260506141001 | 55 | 221 | 0.0 | 0.0 | 0.00 | 0.00 | 0.00 | 83 | 1018.9 |
| 20260506140458 | 55 | 221 | 0.0 | 0.0 | 0.00 | 0.00 | 0.00 | 84 | 1018.8 |
| 20260506135959 | 54 | 221 | 0.0 | 0.0 | 0.00 | 0.00 | 0.00 | 83 | 1018.8 |
| 20260506135452 | 54 | 221 | 0.0 | 0.0 | 0.00 | 0.00 | 0.00 | 84 | 1018.8 |
| 20260506134953 | 54 | 221 | 0.0 | 0.0 | 0.00 | 0.00 | 0.00 | 84 | 1018.8 |
| 20260506134724 | 53 | 221 | 0.0 | 0.0 | 0.00 | 0.00 | 0.00 | 85 | 1018.7 |
| 20260506133953 | 53 | 221 | 0.0 | 0.0 | 0.00 | 0.00 | 0.00 | 85 | 1018.7 |
| 20260506133452 | 53 | 223 | 0.0 | 0.0 | 0.00 | 0.00 | 0.00 | 85 | 1018.6 |
| 20260506132953 | 52 | 223 | 0.0 | 0.0 | 0.00 | 0.00 | 0.00 | 85 | 1018.5 |
| 20260506132722 | 52 | 223 | 0.0 | 0.0 | 0.00 | 0.00 | 0.00 | 85 | 1018.5 |
| 20260506131949 | 52 | 223 | 0.0 | 0.0 | 0.00 | 0.00 | 0.00 | 85 | 1018.4 |
| 20260506131449 | 52 | 223 | 0.0 | 0.0 | 0.00 | 0.00 | 0.00 | 85 | 1018.3 |
| 20260506130944 | 52 | 223 | 0.0 | 0.0 | 0.00 | 0.00 | 0.00 | 85 | 1018.3 |
| 20260506130445 | 52 | 223 | 0.0 | 0.0 | 0.00 | 0.00 | 0.00 | 85 | 1018.2 |
| 20260506125946 | 52 | 223 | 0.0 | 0.0 | 0.00 | 0.00 | 0.00 | 85 | 1018.2 |
| 20260506125443 | 52 | 223 | 0.0 | 0.0 | 0.00 | 0.00 | 0.00 | 85 | 1018.2 |
| 20260506124940 | 51 | 223 | 0.0 | 0.0 | 0.00 | 0.00 | 0.00 | 85 | 1018.1 |
| 20260506124441 | 51 | 223 | 0.0 | 0.0 | 0.00 | 0.00 | 0.00 | 85 | 1018.0 |
| 20260506123935 | 51 | 223 | 0.0 | 0.0 | 0.00 | 0.00 | 0.00 | 84 | 1018.0 |
| 20260506123436 | 51 | 223 | 0.0 | 0.0 | 0.00 | 0.00 | 0.00 | 84 | 1018.0 |
| 20260506122934 | 51 | 223 | 0.0 | 0.0 | 0.00 | 0.00 | 0.00 | 84 | 1018.0 |
| 20260506122435 | 51 | 223 | 0.0 | 0.0 | 0.00 | 0.00 | 0.00 | 84 | 1018.0 |
| 20260506121934 | 51 | 223 | 0.0 | 0.0 | 0.00 | 0.00 | 0.00 | 84 | 1017.9 |
| 20260506121435 | 51 | 223 | 0.0 | 0.0 | 0.00 | 0.00 | 0.00 | 84 | 1017.9 |
| 20260506120935 | 51 | 223 | 0.0 | 0.0 | 0.00 | 0.00 | 0.00 | 84 | 1017.9 |
| 20260506120434 | 51 | 223 | 0.0 | 0.0 | 0.00 | 0.00 | 0.00 | 84 | 1017.8 |
| 20260506115934 | 51 | 223 | 0.0 | 0.0 | 0.00 | 0.00 | 0.00 | 84 | 1017.9 |
| 20260506115435 | 51 | 223 | 0.0 | 0.0 | 0.00 | 0.00 | 0.00 | 84 | 1017.9 |
| 20260506114934 | 51 | 223 | 0.0 | 0.0 | 0.00 | 0.00 | 0.00 | 84 | 1017.8 |
| 20260506114435 | 51 | 223 | 0.0 | 0.0 | 0.00 | 0.01 | 0.00 | 84 | 1017.8 |
| 20260506113934 | 51 | 223 | 0.0 | 0.0 | 0.00 | 0.01 | 0.00 | 84 | 1017.9 |
| 20260506113435 | 51 | 223 | 0.0 | 0.0 | 0.00 | 0.01 | 0.00 | 84 | 1017.9 |
| 20260506112934 | 51 | 223 | 0.0 | 0.0 | 0.00 | 0.01 | 0.00 | 83 | 1017.8 |
| 20260506112434 | 51 | 223 | 0.0 | 0.0 | 0.00 | 0.01 | 0.00 | 83 | 1017.8 |
| 20260506111434 | 51 | 223 | 0.0 | 0.0 | 0.00 | 0.02 | 0.00 | 84 | 1017.8 |
| 20260506110935 | 51 | 223 | 0.0 | 0.0 | 0.00 | 0.03 | 0.00 | 83 | 1017.8 |
| 20260506110435 | 51 | 223 | 0.0 | 0.0 | 0.00 | 0.04 | 0.00 | 83 | 1017.8 |
| 20260506105934 | 51 | 223 | 0.0 | 0.0 | 0.00 | 0.05 | 0.00 | 83 | 1017.8 |
| 20260506105433 | 51 | 223 | 0.0 | 0.0 | 0.00 | 0.07 | 0.00 | 82 | 1017.8 |
| 20260506104934 | 51 | 223 | 0.0 | 0.0 | 0.00 | 0.11 | 0.00 | 82 | 1017.8 |
| 20260506104434 | 52 | 223 | 0.0 | 0.0 | 0.00 | 0.12 | 0.00 | 82 | 1017.8 |
| 20260506103934 | 52 | 223 | 0.0 | 0.0 | 0.00 | 0.13 | 0.00 | 82 | 1017.8 |
| 20260506102932 | 52 | 223 | 0.0 | 0.0 | 0.00 | 0.13 | 0.00 | 82 | 1017.8 |
| 20260506102432 | 52 | 223 | 0.0 | 0.0 | 0.00 | 0.14 | 0.00 | 82 | 1017.8 |
| 20260506102203 | 52 | 223 | 0.0 | 0.9 | 0.00 | 0.14 | 0.00 | 81 | 1017.8 |
| 20260506101433 | 52 | 223 | 0.0 | 0.9 | 0.00 | 0.14 | 0.00 | 81 | 1017.8 |
| 20260506100930 | 53 | 223 | 0.0 | 0.0 | 0.00 | 0.14 | 0.00 | 81 | 1017.8 |
| 20260506100428 | 53 | 223 | 0.0 | 0.0 | 0.00 | 0.14 | 0.00 | 81 | 1017.9 |
| 20260506095927 | 53 | 223 | 0.0 | 0.0 | 0.00 | 0.14 | 0.00 | 81 | 1017.8 |
| 20260506095425 | 53 | 223 | 0.0 | 0.0 | 0.00 | 0.15 | 0.00 | 81 | 1017.8 |
| 20260506094924 | 54 | 223 | 0.0 | 0.0 | 0.00 | 0.15 | 0.00 | 81 | 1017.8 |
| 20260506094423 | 54 | 223 | 0.0 | 0.0 | 0.00 | 0.15 | 0.00 | 81 | 1017.8 |
| 20260506093920 | 54 | 223 | 0.0 | 0.0 | 0.00 | 0.15 | 0.00 | 81 | 1017.8 |
| 20260506093419 | 55 | 223 | 0.0 | 0.9 | 0.00 | 0.15 | 0.00 | 81 | 1017.8 |
| 20260506092919 | 55 | 223 | 0.0 | 0.9 | 0.00 | 0.15 | 0.00 | 81 | 1017.8 |
| 20260506092417 | 55 | 223 | 0.0 | 1.7 | 0.00 | 0.15 | 0.00 | 80 | 1017.8 |
| 20260506091915 | 55 | 223 | 0.0 | 1.7 | 0.00 | 0.15 | 0.00 | 80 | 1017.9 |
| 20260506091648 | 55 | 223 | 0.0 | 1.7 | 0.00 | 0.15 | 0.00 | 80 | 1017.9 |
| 20260506090911 | 55 | 223 | 0.0 | 1.7 | 0.00 | 0.15 | 0.00 | 80 | 1017.8 |
| 20260506090411 | 55 | 223 | 0.9 | 2.6 | 0.00 | 0.15 | 0.00 | 79 | 1017.8 |
| 20260506085908 | 55 | 223 | 0.9 | 2.6 | 0.00 | 0.15 | 0.00 | 79 | 1017.9 |
| 20260506085409 | 55 | 223 | 0.9 | 3.5 | 0.00 | 0.15 | 0.00 | 79 | 1017.9 |
| 20260506084909 | 55 | 223 | 0.9 | 3.5 | 0.00 | 0.15 | 0.00 | 79 | 1017.9 |
| 20260506084409 | 55 | 223 | 0.9 | 2.6 | 0.00 | 0.15 | 0.00 | 78 | 1017.9 |
| 20260506083903 | 55 | 223 | 0.9 | 2.6 | 0.00 | 0.15 | 0.00 | 78 | 1018.0 |
| 20260506083405 | 55 | 223 | 0.9 | 2.6 | 0.00 | 0.15 | 0.00 | 78 | 1018.1 |
| 20260506082905 | 55 | 223 | 0.9 | 3.5 | 0.00 | 0.15 | 0.00 | 78 | 1018.1 |
| 20260506082403 | 56 | 223 | 0.9 | 3.5 | 0.00 | 0.15 | 0.00 | 78 | 1018.2 |
| 20260506081900 | 56 | 223 | 0.9 | 2.6 | 0.00 | 0.15 | 0.00 | 78 | 1018.2 |
| 20260506081400 | 56 | 223 | 0.9 | 2.6 | 0.00 | 0.15 | 0.00 | 77 | 1018.2 |
| 20260506080901 | 56 | 223 | 0.9 | 3.5 | 0.00 | 0.15 | 0.00 | 77 | 1018.1 |
| 20260506080402 | 56 | 223 | 0.9 | 3.5 | 0.00 | 0.15 | 0.00 | 77 | 1018.2 |
| 20260506072854 | 56 | 223 | 0.0 | 2.6 | 0.00 | 0.15 | 0.00 | 75 | 1018.2 |
| 20260506072624 | 56 | 223 | 0.0 | 2.6 | 0.00 | 0.15 | 0.00 | 74 | 1018.2 |
| 20260506071851 | 56 | 223 | 0.0 | 1.7 | 0.00 | 0.15 | 0.00 | 74 | 1018.3 |
| 20260506071350 | 56 | 223 | 0.0 | 2.6 | 0.00 | 0.15 | 0.00 | 74 | 1018.2 |
| 20260506070850 | 57 | 223 | 0.9 | 5.2 | 0.00 | 0.15 | 0.00 | 74 | 1018.1 |
| 20260506070349 | 57 | 223 | 1.7 | 5.2 | 0.00 | 0.15 | 0.00 | 73 | 1018.2 |
| 20260506062340 | 57 | 223 | 0.9 | 4.3 | 0.00 | 0.15 | 0.15 | 73 | 1017.8 |
| 20260506061841 | 57 | 223 | 1.7 | 4.3 | 0.00 | 0.15 | 0.15 | 73 | 1017.7 |
| 20260506061341 | 57 | 223 | 1.7 | 4.3 | 0.00 | 0.15 | 0.15 | 73 | 1017.5 |
| 20260506060842 | 57 | 223 | 1.7 | 3.5 | 0.00 | 0.15 | 0.15 | 73 | 1017.5 |
| 20260506060342 | 57 | 223 | 1.7 | 4.3 | 0.00 | 0.15 | 0.15 | 72 | 1017.5 |
| 20260506051340 | 58 | 222 | 2.6 | 4.3 | 0.00 | 0.15 | 0.15 | 70 | 1017.2 |
| 20260506050841 | 58 | 222 | 2.6 | 5.2 | 0.00 | 0.15 | 0.15 | 70 | 1017.2 |
| 20260506050342 | 58 | 222 | 2.6 | 5.2 | 0.00 | 0.15 | 0.15 | 69 | 1017.2 |
| 20260506044839 | 59 | 221 | 2.6 | 5.2 | 0.00 | 0.15 | 0.15 | 68 | 1016.9 |
| 20260506044338 | 59 | 221 | 3.5 | 7.0 | 0.00 | 0.15 | 0.15 | 68 | 1016.8 |
| 20260506043839 | 59 | 222 | 3.5 | 7.0 | 0.00 | 0.15 | 0.15 | 68 | 1016.6 |
| 20260506043339 | 59 | 222 | 3.5 | 6.1 | 0.00 | 0.15 | 0.15 | 67 | 1016.6 |
| 20260506042839 | 59 | 222 | 3.5 | 6.1 | 0.00 | 0.15 | 0.15 | 67 | 1016.5 |
| 20260506042340 | 59 | 222 | 3.5 | 7.0 | 0.00 | 0.15 | 0.15 | 66 | 1016.4 |
| 20260506041840 | 59 | 222 | 3.5 | 7.8 | 0.00 | 0.15 | 0.15 | 65 | 1016.3 |
| 20260506041340 | 60 | 222 | 3.5 | 7.8 | 0.00 | 0.15 | 0.15 | 64 | 1016.4 |
| 20260506041110 | 60 | 223 | 3.5 | 6.1 | 0.00 | 0.15 | 0.15 | 63 | 1016.2 |
| 20260506040340 | 60 | 223 | 4.3 | 7.0 | 0.00 | 0.15 | 0.15 | 63 | 1016.2 |
| 20260506040109 | 60 | 223 | 3.5 | 7.0 | 0.00 | 0.15 | 0.15 | 62 | 1016.2 |
| 20260506035340 | 60 | 224 | 2.6 | 7.0 | 0.00 | 0.15 | 0.15 | 61 | 1016.1 |
| 20260506034836 | 60 | 228 | 3.5 | 5.2 | 0.00 | 0.15 | 0.15 | 60 | 1016.0 |
| 20260506034332 | 60 | 228 | 3.5 | 5.2 | 0.00 | 0.15 | 0.15 | 60 | 1015.9 |
| 20260506034101 | 60 | 228 | 3.5 | 5.2 | 0.00 | 0.15 | 0.15 | 60 | 1015.7 |
| 20260506033331 | 61 | 229 | 2.6 | 5.2 | 0.00 | 0.15 | 0.15 | 59 | 1015.7 |
| 20260506032829 | 61 | 229 | 3.5 | 6.1 | 0.00 | 0.15 | 0.15 | 59 | 1015.6 |
| 20260506032328 | 61 | 229 | 3.5 | 7.0 | 0.00 | 0.15 | 0.15 | 58 | 1015.5 |
| 20260506031826 | 61 | 229 | 4.3 | 7.0 | 0.00 | 0.15 | 0.15 | 58 | 1015.4 |
| 20260506031325 | 61 | 230 | 4.3 | 7.0 | 0.00 | 0.15 | 0.15 | 57 | 1015.3 |
| 20260506030819 | 62 | 232 | 3.5 | 7.0 | 0.00 | 0.15 | 0.15 | 57 | 1015.3 |
| 20260506030319 | 62 | 233 | 3.5 | 7.0 | 0.00 | 0.15 | 0.15 | 57 | 1015.3 |
| 20260506025816 | 62 | 234 | 4.3 | 7.8 | 0.00 | 0.15 | 0.15 | 57 | 1015.2 |
| 20260506025316 | 62 | 230 | 4.3 | 7.8 | 0.00 | 0.15 | 0.15 | 56 | 1015.2 |
| 20260506024812 | 62 | 234 | 3.5 | 7.0 | 0.00 | 0.15 | 0.15 | 56 | 1015.0 |
| 20260506024304 | 62 | 240 | 3.5 | 7.0 | 0.00 | 0.15 | 0.15 | 56 | 1014.9 |
| 20260506023805 | 63 | 246 | 4.3 | 7.0 | 0.00 | 0.15 | 0.15 | 55 | 1014.9 |
| 20260506023305 | 63 | 243 | 4.3 | 8.7 | 0.00 | 0.15 | 0.15 | 55 | 1014.8 |
| 20260506022300 | 63 | 219 | 4.3 | 9.6 | 0.00 | 0.15 | 0.15 | 53 | 1014.6 |
| 20260506021801 | 64 | 220 | 5.2 | 9.6 | 0.00 | 0.15 | 0.15 | 52 | 1014.5 |
| 20260506021257 | 64 | 226 | 4.3 | 8.7 | 0.00 | 0.15 | 0.15 | 52 | 1014.5 |
| 20260506020757 | 64 | 244 | 4.3 | 9.6 | 0.00 | 0.15 | 0.15 | 52 | 1014.4 |
| 20260506020257 | 64 | 220 | 5.2 | 9.6 | 0.00 | 0.15 | 0.15 | 52 | 1014.5 |
| 20260506015754 | 64 | 226 | 6.1 | 11.3 | 0.00 | 0.15 | 0.15 | 52 | 1014.4 |
| 20260506015252 | 64 | 222 | 6.1 | 11.3 | 0.00 | 0.15 | 0.15 | 51 | 1014.3 |
| 20260506014752 | 65 | 223 | 6.1 | 10.4 | 0.00 | 0.15 | 0.15 | 50 | 1014.3 |
| 20260506014250 | 65 | 223 | 5.2 | 10.4 | 0.00 | 0.15 | 0.15 | 48 | 1014.2 |
| 20260506013750 | 66 | 219 | 5.2 | 9.6 | 0.00 | 0.15 | 0.15 | 49 | 1014.1 |
| 20260506013252 | 66 | 223 | 6.1 | 9.6 | 0.00 | 0.15 | 0.15 | 48 | 1014.1 |
| 20260506013022 | 66 | 200 | 5.2 | 9.6 | 0.00 | 0.15 | 0.15 | 48 | 1014.0 |
| 20260506012250 | 66 | 219 | 5.2 | 11.3 | 0.00 | 0.15 | 0.15 | 48 | 1014.0 |
| 20260506011751 | 67 | 221 | 5.2 | 13.0 | 0.00 | 0.15 | 0.15 | 48 | 1014.0 |
| 20260506011249 | 67 | 240 | 5.2 | 10.4 | 0.00 | 0.15 | 0.15 | 49 | 1014.0 |
| 20260506010749 | 66 | 244 | 6.1 | 10.4 | 0.00 | 0.15 | 0.15 | 49 | 1014.0 |
| 20260506010248 | 66 | 223 | 6.1 | 10.4 | 0.00 | 0.15 | 0.15 | 48 | 1014.0 |
| 20260506010021 | 66 | 221 | 6.1 | 9.6 | 0.00 | 0.15 | 0.15 | 48 | 1014.0 |
| 20260506005249 | 67 | 223 | 5.2 | 11.3 | 0.00 | 0.15 | 0.15 | 47 | 1014.0 |
| 20260506004749 | 67 | 225 | 6.1 | 11.3 | 0.00 | 0.15 | 0.15 | 47 | 1014.0 |
| 20260506004247 | 67 | 263 | 5.2 | 11.3 | 0.00 | 0.15 | 0.15 | 47 | 1014.0 |
| 20260506003747 | 67 | 256 | 5.2 | 13.0 | 0.00 | 0.15 | 0.15 | 48 | 1013.9 |
| 20260506003245 | 67 | 250 | 6.1 | 13.0 | 0.00 | 0.15 | 0.15 | 47 | 1014.0 |
| 20260506002237 | 67 | 257 | 7.0 | 14.8 | 0.00 | 0.15 | 0.15 | 47 | 1013.9 |
| 20260506001737 | 67 | 231 | 7.0 | 14.8 | 0.00 | 0.15 | 0.15 | 47 | 1013.9 |
| 20260506001508 | 67 | 211 | 7.0 | 12.2 | 0.00 | 0.15 | 0.15 | 47 | 1013.8 |
| 20260506001005 | 68 | 230 | 6.1 | 12.2 | 0.00 | 0.15 | 0.15 | 46 | 1013.8 |
| 20260506000232 | 68 | 229 | 6.1 | 11.3 | 0.00 | 0.15 | 0.15 | 48 | 1013.8 |
| 20260505235733 | 67 | 240 | 7.0 | 12.2 | 0.00 | 0.15 | 0.15 | 48 | 1013.9 |
| 20260505235229 | 67 | 228 | 6.1 | 12.2 | 0.00 | 0.15 | 0.15 | 48 | 1013.8 |
| 20260505234959 | 67 | 232 | 7.0 | 13.9 | 0.00 | 0.15 | 0.15 | 48 | 1013.8 |
| 20260505234229 | 67 | 236 | 7.8 | 13.9 | 0.00 | 0.15 | 0.15 | 49 | 1013.9 |
| 20260505233725 | 67 | 213 | 7.8 | 12.2 | 0.00 | 0.15 | 0.15 | 49 | 1013.9 |
| 20260505233224 | 67 | 220 | 6.1 | 12.2 | 0.00 | 0.15 | 0.15 | 48 | 1013.9 |
| 20260505232723 | 67 | 225 | 5.2 | 10.4 | 0.00 | 0.15 | 0.15 | 49 | 1013.9 |
| 20260505232223 | 66 | 231 | 6.1 | 11.3 | 0.00 | 0.15 | 0.15 | 51 | 1013.9 |
| 20260505231721 | 65 | 227 | 7.8 | 11.3 | 0.00 | 0.15 | 0.15 | 52 | 1013.9 |
| 20260505231221 | 65 | 234 | 7.8 | 12.2 | 0.00 | 0.15 | 0.15 | 51 | 1013.9 |
| 20260505230219 | 66 | 216 | 5.2 | 9.6 | 0.00 | 0.15 | 0.15 | 50 | 1014.0 |
| 20260505225718 | 66 | 215 | 5.2 | 9.6 | 0.00 | 0.15 | 0.15 | 51 | 1014.0 |
| 20260505225217 | 66 | 263 | 4.3 | 9.6 | 0.00 | 0.15 | 0.15 | 51 | 1014.0 |
| 20260505224717 | 66 | 252 | 4.3 | 9.6 | 0.00 | 0.15 | 0.15 | 51 | 1014.1 |
| 20260505224217 | 66 | 261 | 5.2 | 12.2 | 0.00 | 0.15 | 0.15 | 52 | 1014.1 |
| 20260505223717 | 66 | 225 | 5.2 | 12.2 | 0.00 | 0.15 | 0.15 | 51 | 1014.2 |
| 20260505223217 | 66 | 240 | 5.2 | 9.6 | 0.00 | 0.15 | 0.15 | 51 | 1014.1 |
| 20260505222714 | 66 | 248 | 5.2 | 9.6 | 0.00 | 0.15 | 0.15 | 52 | 1014.2 |
| 20260505222212 | 66 | 262 | 5.2 | 11.3 | 0.00 | 0.15 | 0.15 | 51 | 1014.3 |
| 20260505221713 | 66 | 227 | 6.1 | 11.3 | 0.00 | 0.15 | 0.15 | 51 | 1014.2 |
| 20260505221210 | 67 | 227 | 5.2 | 10.4 | 0.00 | 0.15 | 0.15 | 51 | 1014.3 |
| 20260505220709 | 66 | 246 | 5.2 | 9.6 | 0.00 | 0.15 | 0.15 | 51 | 1014.2 |
| 20260505220209 | 67 | 222 | 5.2 | 9.6 | 0.00 | 0.15 | 0.15 | 49 | 1014.3 |
| 20260505215705 | 67 | 235 | 5.2 | 10.4 | 0.00 | 0.15 | 0.15 | 50 | 1014.3 |
| 20260505215205 | 67 | 219 | 4.3 | 10.4 | 0.00 | 0.15 | 0.15 | 50 | 1014.3 |
| 20260505214703 | 67 | 223 | 4.3 | 8.7 | 0.00 | 0.15 | 0.15 | 51 | 1014.4 |
| 20260505214204 | 67 | 236 | 4.3 | 9.6 | 0.00 | 0.15 | 0.15 | 51 | 1014.4 |
| 20260505213701 | 67 | 242 | 4.3 | 9.6 | 0.00 | 0.15 | 0.15 | 51 | 1014.4 |
| 20260505213433 | 66 | 267 | 5.2 | 10.4 | 0.00 | 0.15 | 0.15 | 51 | 1014.5 |
| 20260505212655 | 67 | 223 | 5.2 | 10.4 | 0.00 | 0.15 | 0.15 | 50 | 1014.5 |
| 20260505212154 | 67 | 229 | 5.2 | 10.4 | 0.00 | 0.15 | 0.15 | 51 | 1014.5 |
| 20260505211650 | 67 | 267 | 4.3 | 10.4 | 0.00 | 0.15 | 0.15 | 51 | 1014.6 |
| 20260505211150 | 67 | 231 | 3.5 | 8.7 | 0.00 | 0.15 | 0.15 | 51 | 1014.6 |
| 20260505210920 | 67 | 236 | 4.3 | 10.4 | 0.00 | 0.15 | 0.15 | 50 | 1014.7 |
| 20260505210147 | 67 | 245 | 5.2 | 10.4 | 0.00 | 0.15 | 0.15 | 51 | 1014.7 |
| 20260505205647 | 66 | 229 | 5.2 | 9.6 | 0.00 | 0.15 | 0.15 | 53 | 1014.7 |
| 20260505205147 | 66 | 226 | 5.2 | 13.0 | 0.00 | 0.15 | 0.15 | 53 | 1014.7 |
| 20260505204646 | 66 | 222 | 6.1 | 13.0 | 0.00 | 0.15 | 0.15 | 52 | 1014.7 |
| 20260505204146 | 67 | 217 | 6.1 | 12.2 | 0.00 | 0.15 | 0.15 | 50 | 1014.7 |
| 20260505203646 | 67 | 223 | 6.1 | 12.2 | 0.00 | 0.15 | 0.15 | 51 | 1014.6 |
| 20260505203413 | 67 | 222 | 7.0 | 13.0 | 0.00 | 0.15 | 0.15 | 51 | 1014.6 |
| 20260505202643 | 67 | 257 | 6.1 | 13.0 | 0.00 | 0.15 | 0.15 | 51 | 1014.6 |
| 20260505202138 | 67 | 211 | 6.1 | 12.2 | 0.00 | 0.15 | 0.15 | 51 | 1014.6 |
| 20260505201907 | 67 | 240 | 6.1 | 12.2 | 0.00 | 0.15 | 0.15 | 51 | 1014.6 |
| 20260505201136 | 67 | 221 | 6.1 | 12.2 | 0.00 | 0.15 | 0.15 | 51 | 1014.6 |
| 20260505200634 | 67 | 219 | 7.0 | 12.2 | 0.00 | 0.15 | 0.15 | 52 | 1014.7 |
| 20260505200135 | 66 | 222 | 6.1 | 12.2 | 0.00 | 0.15 | 0.15 | 53 | 1014.7 |
| 20260505195634 | 65 | 226 | 6.1 | 12.2 | 0.00 | 0.15 | 0.15 | 53 | 1014.7 |
| 20260505195135 | 65 | 228 | 7.0 | 11.3 | 0.00 | 0.15 | 0.15 | 53 | 1014.8 |
| 20260505194634 | 66 | 223 | 5.2 | 11.3 | 0.00 | 0.15 | 0.15 | 52 | 1014.9 |
| 20260505194135 | 67 | 250 | 5.2 | 10.4 | 0.00 | 0.15 | 0.15 | 51 | 1014.9 |
| 20260505193906 | 67 | 222 | 5.2 | 10.4 | 0.00 | 0.15 | 0.15 | 50 | 1014.9 |
| 20260505193136 | 67 | 211 | 5.2 | 9.6 | 0.00 | 0.15 | 0.15 | 49 | 1014.9 |
| 20260505192635 | 67 | 222 | 6.1 | 9.6 | 0.00 | 0.15 | 0.15 | 49 | 1014.9 |
| 20260505192135 | 67 | 223 | 5.2 | 10.4 | 0.00 | 0.15 | 0.15 | 51 | 1015.0 |
| 20260505191635 | 66 | 210 | 5.2 | 10.4 | 0.00 | 0.15 | 0.15 | 52 | 1015.0 |
| 20260505191135 | 66 | 232 | 3.5 | 10.4 | 0.00 | 0.15 | 0.15 | 51 | 1015.1 |
| 20260505190632 | 66 | 221 | 3.5 | 10.4 | 0.00 | 0.15 | 0.15 | 51 | 1015.0 |
| 20260505190132 | 66 | 219 | 5.2 | 11.3 | 0.00 | 0.15 | 0.15 | 51 | 1015.1 |
| 20260505185633 | 66 | 216 | 5.2 | 11.3 | 0.00 | 0.15 | 0.15 | 51 | 1015.1 |
| 20260505185133 | 66 | 238 | 3.5 | 9.6 | 0.00 | 0.15 | 0.15 | 52 | 1015.1 |
| 20260505184128 | 65 | 210 | 5.2 | 9.6 | 0.00 | 0.15 | 0.15 | 53 | 1015.1 |
| 20260505183627 | 65 | 223 | 4.3 | 10.4 | 0.00 | 0.15 | 0.15 | 52 | 1015.2 |
| 20260505183127 | 66 | 209 | 3.5 | 10.4 | 0.00 | 0.15 | 0.15 | 52 | 1015.1 |
| 20260505182858 | 66 | 235 | 3.5 | 7.8 | 0.00 | 0.15 | 0.15 | 54 | 1015.2 |
| 20260505182125 | 66 | 234 | 2.6 | 8.7 | 0.00 | 0.15 | 0.15 | 54 | 1015.2 |
| 20260505181619 | 65 | 215 | 3.5 | 8.7 | 0.00 | 0.15 | 0.15 | 58 | 1015.2 |
| 20260505181116 | 64 | 212 | 4.3 | 7.8 | 0.00 | 0.15 | 0.15 | 58 | 1015.2 |
| 20260505180617 | 64 | 218 | 5.2 | 9.6 | 0.00 | 0.15 | 0.15 | 57 | 1015.2 |
| 20260505180112 | 64 | 221 | 4.3 | 9.6 | 0.00 | 0.15 | 0.15 | 60 | 1015.2 |
| 20260505175609 | 63 | 209 | 4.3 | 8.7 | 0.00 | 0.15 | 0.15 | 60 | 1015.1 |
| 20260505175109 | 63 | 200 | 4.3 | 8.7 | 0.00 | 0.15 | 0.15 | 60 | 1015.1 |
| 20260505174604 | 64 | 198 | 4.3 | 7.8 | 0.00 | 0.15 | 0.15 | 60 | 1015.0 |
| 20260505174332 | 63 | 216 | 4.3 | 8.7 | 0.00 | 0.15 | 0.15 | 62 | 1015.0 |
| 20260505173601 | 62 | 223 | 5.2 | 10.4 | 0.00 | 0.15 | 0.15 | 63 | 1014.9 |
| 20260505173057 | 62 | 219 | 5.2 | 10.4 | 0.00 | 0.15 | 0.15 | 63 | 1014.9 |